Temp
-8 -8 -8 -8 -8 -8 -8 -8 -8 -8 -8 -8 -8 -8 -8 -8 -8 -9 -9 -9 -9 -10 -10 -11 -11 -11 -11 -11 -11 -10 -11 -10 -10 -10 -10 -10 -10 -10 -10 -9 -9 -9 -9
-8 -7 -8 -8 -8 -8 -8 -8 -8 -8 -8 -8 -8 -8 -8 -8 -8 -9 -9 -9 -10 -10 -11 -11 -11 -11 -12 -12 -12 -11 -11 -11 -11 -10 -10 -10 -10 -10 -10 -9 -9 -9 -9
-8 -8 -8 -8 -8 -8 -8 -8 -8 -8 -8 -8 -8 -9 -8 -8 -8 -9 -9 -10 -10 -11 -12 -11 -12 -12 -12 -12 -12 -12 -11 -11 -11 -11 -10 -10 -10 -10 -10 -10 -9 -9 -9
-8 -8 -8 -8 -8 -8 -8 -8 -8 -8 -8 -8 -8 -8 -8 -9 -9 -9 -9 -10 -10 -10 -11 -11 -12 -12 -13 -12 -12 -12 -12 -11 -11 -11 -11 -11 -11 -10 -10 -10 -9 -9 -9
-8 -8 -8 -8 -8 -8 -9 -8 -8 -8 -8 -8 -8 -9 -9 -9 -9 -9 -10 -10 -10 -10 -11 -11 -11 -11 -12 -13 -12 -12 -12 -12 -12 -12 -11 -11 -11 -11 -11 -10 -10 -9 -9
-8 -8 -8 -9 -8 -8 -8 -8 -9 -9 -9 -9 -9 -9 -9 -9 -9 -10 -10 -11 -10 -11 -11 -10 -12 -12 -11 -12 -12 -12 -12 -12 -13 -12 -12 -12 -12 -12 -11 -10 -10 -9 -10
-8 -8 -8 -8 -8 -8 -8 -9 -9 -9 -9 -9 -9 -9 -9 -10 -10 -10 -11 -11 -11 -11 -11 -11 -12 -11 -12 -12 -11 -12 -12 -12 -13 -12 -12 -12 -12 -12 -11 -11 -10 -10 -10
-9 -8 -8 -8 -9 -9 -9 -9 -9 -9 -9 -9 -9 -9 -10 -10 -10 -10 -11 -12 -11 -11 -11 -11 -11 -11 -11 -12 -12 -11 -12 -12 -13 -13 -12 -13 -12 -12 -12 -11 -10 -10 -10
-9 -8 -8 -8 -8 -9 -9 -9 -9 -9 -9 -9 -9 -9 -10 -10 -10 -11 -12 -12 -12 -11 -11 -11 -11 -12 -12 -12 -12 -12 -12 -12 -13 -13 -12 -14 -13 -12 -12 -11 -11 -11 -10
-9 -9 -8 -9 -8 -8 -9 -9 -9 -9 -9 -9 -10 -9 -10 -10 -11 -12 -13 -13 -12 -12 -12 -13 -12 -12 -12 -13 -12 -11 -12 -13 -13 -13 -13 -13 -13 -13 -12 -11 -11 -11 -11
-9 -9 -9 -9 -9 -9 -9 -9 -9 -9 -10 -10 -10 -10 -10 -11 -11 -12 -13 -13 -12 -12 -12 -13 -13 -12 -12 -12 -12 -12 -13 -12 -13 -13 -14 -13 -13 -13 -12 -12 -12 -11 -12
-8 -9 -10 -10 -9 -9 -9 -9 -9 -9 -10 -10 -10 -10 -10 -11 -11 -12 -13 -13 -13 -13 -12 -13 -13 -12 -12 -12 -12 -12 -11 -13 -13 -14 -14 -14 -13 -13 -12 -12 -12 -12 -12
-9 -9 -10 -10 -10 -10 -10 -10 -9 -10 -10 -10 -10 -10 -10 -11 -11 -13 -14 -13 -13 -13 -12 -13 -12 -12 -12 -13 -12 -12 -11 -12 -13 -14 -15 -14 -13 -13 -13 -12 -12 -12 -12
-10 -10 -10 -10 -11 -11 -10 -10 -10 -10 -10 -10 -10 -10 -10 -11 -11 -13 -14 -13 -13 -13 -12 -12 -12 -12 -12 -13 -12 -12 -11 -13 -14 -14 -14 -14 -13 -13 -13 -13 -12 -12 -13
-10 -10 -10 -10 -11 -11 -10 -10 -11 -10 -10 -10 -10 -10 -10 -11 -11 -12 -14 -13 -13 -13 -13 -13 -12 -12 -12 -13 -12 -13 -12 -12 -14 -14 -13 -14 -13 -13 -13 -13 -13 -13 -13
-11 -10 -10 -10 -10 -11 -11 -11 -11 -11 -10 -10 -10 -10 -10 -11 -11 -12 -14 -13 -13 -13 -13 -13 -13 -13 -13 -12 -13 -13 -12 -12 -13 -14 -14 -13 -13 -13 -13 -13 -13 -13 -13
-11 -10 -10 -10 -10 -11 -11 -11 -11 -11 -11 -10 -10 -10 -10 -11 -11 -12 -14 -13 -13 -13 -13 -13 -13 -13 -13 -13 -13 -12 -12 -13 -13 -14 -14 -14 -14 -13 -13 -13 -14 -14 -14
-12 -11 -11 -10 -10 -10 -11 -11 -12 -11 -11 -10 -10 -11 -11 -11 -12 -12 -14 -13 -13 -13 -13 -14 -13 -13 -13 -13 -13 -13 -13 -13 -14 -14 -13 -14 -14 -14 -14 -14 -14 -15 -15
-12 -12 -11 -10 -10 -11 -12 -11 -11 -11 -11 -10 -11 -11 -11 -11 -12 -12 -14 -13 -13 -13 -13 -14 -14 -13 -14 -13 -13 -12 -12 -13 -13 -14 -13 -14 -14 -14 -14 -14 -15 -15 -15
-11 -11 -11 -10 -10 -11 -11 -11 -11 -11 -11 -11 -11 -11 -11 -11 -11 -12 -14 -13 -13 -13 -13 -14 -14 -13 -13 -13 -13 -13 -13 -12 -13 -13 -13 -13 -14 -14 -14 -15 -15 -15 -14
-11 -11 -11 -11 -11 -11 -10 -11 -12 -12 -11 -11 -11 -11 -11 -12 -12 -12 -14 -13 -13 -13 -14 -14 -14 -14 -14 -13 -13 -13 -13 -13 -13 -13 -13 -14 -14 -15 -15 -15 -15 -15 -14
-11 -11 -11 -12 -12 -11 -11 -11 -11 -11 -12 -11 -11 -11 -11 -11 -12 -13 -14 -14 -13 -13 -13 -14 -14 -14 -13 -13 -14 -13 -13 -13 -13 -13 -13 -13 -14 -15 -15 -15 -15 -15 -14
-11 -11 -13 -13 -13 -12 -12 -11 -11 -11 -12 -12 -12 -11 -11 -11 -12 -13 -14 -14 -14 -13 -13 -14 -14 -14 -14 -13 -13 -13 -13 -13 -13 -12 -13 -13 -13 -14 -15 -15 -14 -14 -14
-12 -12 -14 -13 -13 -12 -12 -12 -12 -12 -12 -12 -12 -12 -11 -11 -12 -13 -14 -14 -14 -14 -14 -14 -14 -14 -14 -14 -13 -13 -13 -13 -13 -13 -13 -13 -14 -14 -15 -14 -14 -14 -13
-12 -14 -16 -14 -14 -13 -13 -13 -13 -13 -12 -12 -12 -12 -11 -12 -12 -13 -14 -14 -14 -14 -14 -14 -14 -14 -14 -14 -14 -13 -13 -13 -13 -13 -13 -12 -13 -15 -15 -14 -14 -14 -13
-14 -16 -16 -15 -14 -14 -14 -13 -13 -13 -12 -12 -12 -12 -12 -12 -12 -14 -14 -14 -14 -14 -14 -14 -14 -14 -14 -14 -13 -14 -14 -13 -13 -13 -13 -12 -13 -14 -15 -15 -13 -12 -13
Height
5858 5858 5858 5858 5858 5858 5857 5857 5856 5854 5853 5851 5850 5848 5846 5844 5842 5841 5839 5837 5836 5834 5833 5832 5832 5832 5834 5836 5837 5840 5841 5842 5843 5844 5846 5847 5848 5849 5850 5851 5852 5854 5854
5856 5856 5856 5856 5856 5856 5855 5854 5853 5852 5850 5849 5847 5845 5843 5841 5839 5837 5836 5833 5832 5832 5831 5830 5828 5828 5828 5830 5833 5837 5838 5840 5842 5843 5844 5845 5846 5848 5849 5849 5851 5852 5853
5854 5854 5854 5855 5854 5854 5853 5852 5851 5849 5848 5846 5844 5843 5841 5838 5836 5834 5833 5831 5829 5828 5825 5823 5822 5823 5822 5826 5828 5830 5833 5834 5838 5839 5841 5842 5844 5845 5846 5848 5849 5850 5851
5853 5853 5853 5853 5852 5851 5850 5849 5848 5846 5845 5843 5842 5840 5838 5836 5834 5832 5829 5827 5825 5824 5821 5819 5815 5815 5817 5819 5822 5824 5827 5830 5833 5835 5837 5838 5841 5842 5844 5845 5846 5846 5847
5850 5851 5852 5851 5850 5849 5848 5847 5846 5844 5843 5842 5839 5837 5835 5834 5831 5829 5826 5824 5823 5821 5819 5817 5817 5815 5813 5813 5817 5818 5823 5824 5827 5831 5833 5834 5836 5839 5840 5841 5843 5844 5845
5847 5848 5849 5849 5848 5848 5847 5845 5843 5842 5841 5839 5837 5834 5832 5830 5828 5826 5823 5821 5820 5818 5816 5814 5814 5813 5812 5808 5810 5814 5817 5820 5824 5827 5826 5831 5832 5835 5837 5838 5839 5841 5843
5843 5844 5845 5845 5844 5844 5843 5842 5840 5839 5837 5836 5834 5832 5829 5826 5823 5822 5819 5817 5817 5816 5813 5813 5811 5811 5808 5810 5808 5811 5813 5816 5820 5824 5822 5827 5830 5832 5834 5836 5837 5839 5840
5838 5838 5839 5841 5841 5840 5840 5839 5837 5836 5834 5832 5830 5828 5825 5822 5819 5817 5814 5814 5812 5812 5810 5810 5808 5806 5805 5807 5807 5807 5811 5814 5817 5817 5818 5821 5825 5828 5829 5832 5834 5836 5838
5835 5832 5832 5834 5835 5835 5835 5835 5834 5832 5830 5828 5826 5823 5821 5818 5815 5811 5810 5809 5808 5805 5804 5804 5802 5802 5803 5804 5804 5803 5808 5812 5811 5815 5813 5818 5823 5826 5827 5829 5831 5832 5834
5830 5827 5826 5828 5828 5828 5829 5830 5829 5829 5826 5825 5822 5820 5817 5815 5812 5808 5805 5804 5804 5802 5799 5798 5798 5796 5797 5798 5801 5802 5803 5806 5810 5811 5810 5817 5820 5824 5825 5826 5828 5830 5831
5824 5823 5822 5821 5822 5822 5823 5824 5824 5823 5823 5820 5819 5816 5813 5810 5807 5804 5802 5801 5800 5799 5798 5795 5795 5795 5795 5795 5797 5798 5798 5801 5808 5807 5808 5813 5816 5818 5823 5825 5826 5827 5829
5817 5818 5817 5816 5816 5816 5818 5818 5818 5817 5817 5816 5815 5812 5809 5806 5802 5798 5797 5797 5796 5795 5794 5792 5788 5791 5790 5791 5793 5793 5793 5800 5803 5804 5804 5809 5814 5818 5820 5824 5823 5825 5826
5808 5810 5812 5812 5811 5810 5811 5813 5813 5812 5812 5811 5810 5808 5805 5802 5798 5795 5793 5793 5792 5791 5789 5787 5787 5787 5785 5787 5788 5790 5791 5796 5799 5801 5802 5806 5811 5814 5817 5821 5821 5823 5824
5802 5803 5803 5806 5806 5804 5804 5806 5806 5806 5806 5805 5805 5803 5801 5798 5795 5792 5791 5789 5788 5786 5785 5781 5781 5782 5782 5784 5786 5788 5789 5793 5795 5799 5800 5804 5808 5812 5814 5817 5818 5820 5821
5788 5791 5795 5798 5798 5797 5798 5798 5799 5799 5799 5799 5798 5798 5796 5793 5791 5788 5787 5785 5784 5782 5780 5778 5777 5779 5779 5780 5784 5785 5785 5791 5793 5795 5798 5801 5805 5809 5811 5813 5816 5817 5818
5781 5779 5783 5785 5790 5789 5790 5791 5791 5792 5793 5793 5792 5791 5791 5788 5786 5784 5783 5782 5780 5778 5776 5775 5775 5776 5776 5777 5780 5781 5782 5787 5789 5792 5794 5797 5802 5806 5808 5810 5811 5813 5814
5767 5770 5773 5774 5775 5782 5783 5782 5783 5783 5785 5786 5787 5785 5785 5782 5779 5778 5777 5777 5776 5775 5773 5773 5773 5774 5775 5775 5775 5776 5778 5784 5786 5787 5790 5794 5799 5802 5805 5806 5807 5808 5809
5756 5759 5763 5762 5764 5772 5775 5773 5775 5776 5777 5780 5779 5780 5778 5777 5775 5773 5772 5772 5772 5771 5769 5768 5768 5768 5768 5771 5770 5769 5774 5781 5782 5782 5787 5791 5794 5798 5800 5801 5802 5803 5803
5746 5749 5752 5753 5758 5762 5763 5765 5765 5767 5770 5771 5771 5773 5772 5770 5768 5767 5767 5767 5766 5766 5765 5763 5763 5764 5763 5764 5766 5766 5769 5776 5778 5778 5782 5786 5790 5793 5795 5796 5798 5798 5800
5735 5739 5741 5745 5750 5750 5754 5755 5756 5758 5761 5762 5764 5765 5764 5764 5762 5761 5761 5761 5760 5760 5759 5759 5759 5759 5760 5759 5760 5764 5766 5769 5772 5775 5777 5782 5785 5787 5789 5791 5792 5793 5794
5724 5727 5731 5736 5739 5740 5744 5748 5749 5750 5751 5754 5756 5757 5758 5756 5755 5754 5754 5756 5755 5755 5754 5754 5754 5755 5755 5756 5758 5759 5762 5765 5768 5769 5772 5776 5778 5781 5784 5786 5787 5789 5791
5713 5716 5721 5727 5729 5730 5732 5736 5740 5743 5744 5745 5748 5748 5751 5749 5748 5747 5748 5749 5750 5750 5749 5749 5749 5749 5750 5750 5753 5755 5757 5760 5763 5767 5766 5769 5772 5776 5778 5781 5783 5785 5788
5700 5706 5713 5716 5719 5721 5724 5725 5728 5734 5737 5739 5739 5740 5741 5741 5739 5739 5742 5742 5743 5744 5744 5743 5744 5744 5744 5744 5745 5749 5751 5754 5758 5760 5764 5764 5766 5769 5773 5776 5779 5781 5784
5687 5696 5701 5703 5707 5710 5713 5717 5719 5723 5726 5729 5729 5730 5731 5733 5732 5732 5735 5734 5735 5737 5737 5738 5738 5737 5738 5738 5737 5741 5743 5746 5750 5755 5757 5760 5761 5763 5767 5771 5774 5776 5780
5675 5687 5689 5692 5696 5700 5703 5706 5709 5714 5717 5718 5720 5722 5723 5724 5725 5725 5726 5727 5728 5729 5731 5732 5731 5731 5730 5731 5731 5733 5735 5739 5742 5747 5750 5754 5755 5758 5762 5764 5767 5769 5775
5667 5673 5676 5682 5685 5690 5693 5696 5700 5704 5707 5710 5713 5714 5715 5716 5717 5717 5719 5721 5722 5723 5723 5724 5725 5724 5723 5721 5722 5724 5726 5731 5737 5741 5745 5746 5750 5750 5753 5755 5757 5764 5769
Wind_Speed
3 6 7 7 9 12 14 15 16 16 17 17 18 18 18 21 21 21 21 22 24 25 23 18 15 21 23 25 29 32 25 21 23 25 25 23 18 19 17 15 15 15 14
7 8 9 7 8 11 15 16 14 15 18 19 19 20 20 21 21 22 23 22 24 24 24 23 21 19 23 24 25 29 30 30 24 23 25 21 22 17 16 16 15 14 14
7 8 6 8 11 13 15 14 15 16 17 18 20 22 21 23 24 24 23 22 21 21 23 27 28 24 23 25 27 25 22 23 30 28 30 29 27 24 17 18 15 15 14
9 9 9 11 11 10 11 11 13 15 16 16 16 18 20 23 26 27 24 20 22 24 28 34 34 32 26 24 24 26 31 31 26 34 29 28 25 22 18 17 16 16 17
13 12 12 13 14 12 9 11 13 15 16 17 17 18 19 22 24 28 29 25 21 23 27 19 17 28 31 25 26 28 28 30 32 29 28 28 24 21 20 19 17 17 16
18 16 16 17 16 13 13 13 14 16 17 17 18 19 20 21 26 29 31 29 23 23 24 24 21 28 33 28 26 26 28 30 27 21 27 27 25 23 21 20 20 19 17
22 19 19 18 17 15 15 15 16 18 18 20 19 19 21 21 24 28 30 27 24 24 23 23 23 28 24 19 21 23 24 28 28 30 32 29 26 24 23 21 21 19 17
25 25 24 21 19 18 14 17 19 18 20 21 23 24 23 23 25 28 30 27 26 24 25 21 21 19 17 17 16 16 20 23 23 24 33 32 27 24 24 23 21 19 17
25 31 29 26 23 22 19 15 19 20 20 23 24 25 26 27 27 27 29 26 24 25 26 25 19 20 22 20 17 16 18 19 26 25 28 21 22 23 23 23 21 20 17
29 32 33 30 27 28 24 21 19 21 21 22 24 26 28 28 28 26 28 25 23 21 26 24 20 21 22 24 25 16 18 19 25 28 32 25 25 24 23 23 21 19 17
34 35 35 34 30 30 28 24 22 22 23 22 25 26 29 29 30 28 26 23 22 21 22 22 21 20 18 22 20 23 21 20 19 31 28 23 23 23 23 22 18 17 18
39 34 32 35 34 33 30 26 26 25 24 23 25 27 29 31 29 28 24 22 21 23 22 21 21 20 20 23 22 21 20 17 19 28 28 23 24 24 20 21 18 19 17
42 39 35 33 35 35 31 28 29 28 27 25 25 25 30 32 32 28 23 22 23 23 23 19 22 19 18 19 22 21 18 15 18 27 23 22 23 23 22 20 18 17 17
42 41 40 36 33 35 35 32 31 31 29 26 27 26 29 32 32 27 23 22 23 23 21 20 19 18 19 22 22 19 16 14 19 24 23 22 24 24 20 20 20 19 17
47 47 43 37 36 37 36 35 33 32 30 27 28 26 29 32 33 29 22 22 23 22 22 17 17 17 20 22 23 23 15 13 20 22 24 16 20 21 22 20 20 20 18
43 47 44 44 40 39 37 37 33 34 31 29 29 28 28 31 32 31 22 23 23 20 22 17 16 20 20 17 18 23 24 11 16 24 20 18 20 20 21 20 22 21 21
46 46 45 44 45 36 35 37 34 34 31 30 29 29 29 31 33 31 22 23 25 18 21 20 20 17 16 19 26 25 26 10 19 26 20 20 20 21 23 24 23 22 21
50 47 45 47 44 35 32 34 33 34 34 30 27 33 30 31 33 30 22 23 25 19 20 21 21 24 21 23 24 21 25 15 20 25 22 23 22 25 25 25 28 29 22
52 49 47 46 42 36 32 34 35 33 33 29 29 33 30 32 32 28 23 23 26 22 21 21 21 22 28 24 28 24 25 19 20 25 24 25 25 25 25 26 26 22 25
51 47 47 44 42 40 35 31 33 32 29 31 30 33 30 31 32 27 24 23 26 25 22 23 23 22 23 21 27 29 24 16 19 22 24 26 25 26 26 25 26 25 20
52 49 48 42 42 41 37 31 32 32 32 31 31 33 30 33 30 28 25 24 26 25 23 23 24 20 21 27 20 31 25 21 19 19 23 24 26 27 26 24 21 18 16
54 53 48 40 40 39 37 33 29 33 32 30 32 30 32 33 28 28 25 27 26 25 23 23 24 23 24 25 26 29 30 26 26 25 22 18 25 28 26 25 25 22 21
59 55 40 41 40 38 37 37 38 34 29 27 29 33 34 33 29 30 26 28 27 27 23 23 25 25 26 27 30 28 37 34 29 25 22 23 25 29 25 28 27 23 24
61 50 34 41 39 39 37 35 36 33 30 30 33 36 33 34 30 31 26 28 29 28 25 23 24 25 27 29 30 33 30 38 32 28 25 25 25 26 27 30 28 29 27
55 37 37 40 40 39 38 38 39 36 35 35 35 36 32 35 29 28 27 30 30 29 27 25 24 27 27 29 28 34 31 38 36 29 27 23 27 27 32 33 34 33 27
44 34 35 37 40 39 40 40 41 39 39 37 35 34 34 34 26 28 28 29 28 29 27 26 27 28 30 33 31 38 33 38 39 31 30 29 24 36 39 38 38 32 30
Wind_Direction
357 329 319 322 323 317 315 307 303 304 306 311 317 320 323 328 327 325 316 306 304 294 282 269 250 249 248 243 239 232 226 226 223 225 228 237 244 229 235 241 252 251 245
298 320 322 319 314 312 312 310 310 307 301 302 303 309 314 316 316 318 321 312 307 303 288 277 257 242 238 231 238 240 239 237 237 235 226 236 236 240 245 251 254 250 243
285 298 295 288 298 303 314 303 303 311 312 309 308 308 309 311 311 312 318 317 308 297 288 280 259 244 238 240 239 241 234 230 232 230 232 238 247 251 249 249 250 240 235
284 298 277 286 293 303 324 329 317 315 313 314 314 311 312 311 310 312 311 308 310 303 292 294 277 237 230 235 238 236 229 240 242 242 242 237 242 245 236 235 235 229 229
275 283 291 294 303 299 307 317 320 315 314 314 316 315 316 317 315 310 305 306 311 306 308 315 287 286 250 215 234 237 234 231 232 240 242 238 234 233 226 225 233 230 228
269 271 269 280 303 308 307 308 310 314 314 310 313 317 318 316 313 310 308 309 309 308 305 299 279 284 310 237 228 236 234 232 230 225 239 235 232 228 227 227 229 233 230
263 267 268 271 284 304 311 302 310 319 317 314 318 321 325 326 320 315 307 305 308 307 305 300 283 288 300 270 249 232 238 235 233 237 243 239 233 227 227 231 232 231 234
266 270 268 272 280 288 304 297 302 314 316 316 322 326 329 328 325 315 304 303 302 304 307 307 288 294 287 245 242 241 246 242 238 237 237 223 225 228 226 231 232 232 233
262 270 276 279 283 287 289 294 293 306 314 316 321 326 328 326 325 317 301 301 300 305 307 312 302 284 272 247 245 248 244 240 236 227 234 206 225 234 231 231 229 226 226
256 266 273 275 280 285 284 295 292 293 307 313 317 320 326 326 326 318 304 305 299 299 305 308 301 286 277 241 236 250 247 241 239 235 238 245 238 238 237 233 229 226 222
259 259 266 272 275 279 281 282 289 287 297 307 312 315 319 323 327 322 306 303 295 294 302 304 290 274 263 223 231 246 261 262 234 233 240 236 235 233 238 237 227 223 222
260 261 262 269 273 276 279 274 282 283 287 299 306 312 315 321 322 317 309 304 297 298 302 296 292 277 271 239 236 244 249 258 234 230 236 232 234 234 234 237 229 228 226
262 265 266 266 270 274 275 273 277 280 283 292 299 308 312 319 323 316 308 303 294 298 300 293 284 271 279 245 228 232 260 270 233 222 231 225 231 235 234 235 234 237 235
264 268 268 268 270 270 274 272 272 276 279 286 295 305 308 313 320 312 303 301 292 299 299 292 281 267 273 240 222 228 257 257 233 220 226 227 228 232 233 234 236 235 235
270 268 266 265 270 268 268 270 268 270 273 279 288 299 304 310 315 312 303 299 291 301 303 298 278 273 265 239 229 238 251 245 227 224 222 238 225 227 231 239 248 244 240
268 269 269 266 262 264 267 265 265 265 266 273 282 292 299 306 310 308 299 296 289 300 303 297 276 277 270 240 232 231 246 242 225 232 225 229 227 234 241 244 247 245 246
269 265 264 266 267 265 265 263 262 261 263 269 275 288 295 300 305 304 294 291 287 289 298 293 262 270 241 225 230 225 236 237 229 231 230 232 241 246 253 245 247 244 249
269 268 268 264 266 267 265 262 258 257 259 266 277 282 287 293 299 301 285 286 284 280 292 297 285 271 270 248 237 222 226 239 230 239 232 237 244 250 252 244 246 255 257
260 262 263 266 270 269 260 254 250 251 254 260 268 275 281 288 296 297 278 281 281 277 283 297 298 286 287 287 223 240 243 233 227 237 236 235 240 249 247 247 263 258 259
261 264 264 265 268 266 260 252 250 249 248 259 264 272 279 284 293 294 273 276 276 274 279 293 300 292 284 285 213 232 235 227 223 227 231 233 237 246 247 253 263 258 238
254 258 260 264 266 266 263 252 236 244 249 257 262 269 276 281 289 289 270 271 273 271 278 287 296 295 287 283 256 225 228 224 221 222 229 232 237 243 249 253 243 222 213
247 253 257 260 259 262 265 259 245 241 247 255 262 270 275 277 282 280 263 265 270 267 276 283 288 293 288 291 277 224 228 239 239 243 242 250 244 241 246 250 218 215 219
246 245 250 250 252 252 254 256 257 249 246 252 258 265 268 273 280 277 261 259 267 263 267 279 283 285 285 293 274 256 227 245 242 241 237 252 254 240 235 240 225 223 227
247 243 246 250 249 248 245 250 253 253 252 247 256 265 269 273 280 282 256 257 262 260 262 273 284 284 282 287 270 274 249 237 239 235 238 239 240 230 232 233 229 230 231
247 248 243 244 245 245 245 246 249 254 254 249 254 261 268 270 278 270 252 255 258 258 261 267 284 279 282 281 267 267 263 236 235 235 238 251 233 218 230 234 230 232 234
251 241 246 243 243 243 246 248 252 254 248 251 252 259 264 266 278 264 251 254 255 257 261 267 273 281 287 277 271 272 255 235 235 234 241 246 252 220 215 227 234 236 238